Location: Freiburg+im+Breisgau
(48.0359°N, 7.8195°E)
Time: 11:14:07
(UTC+01:00)

ISS - Pass Details

Date: 14 February 2018
Orbit: 402 x 407 km, 51.6° (Epoch: 24 February)

Event Time Altitude Azimuth Distance (km) Brightness Sun altitude
Rises 18:23:54 0° 285° (WNW) 2,320 1.3 -6.4°
Reaches altitude 10° 18:26:31 10° 263° (W) 1,457 0.8 -6.8°
Maximum altitude 18:28:37 16° 223° (SW) 1,143 -0.7 -7.2°
Drops below altitude 10° 18:30:43 10° 183° (S) 1,451 -0.8 -7.5°
Sets 18:33:19 0° 160° (SSE) 2,306 -0.1 -7.9°
